TimePST,TemperatureF,Dew PointF,Humidity,Sea Level PressureIn,VisibilityMPH,Wind Direction,Wind SpeedMPH,Gust SpeedMPH,PrecipitationIn,Events,Conditions,WindDirDegrees,DateUTC
12:53 AM,37.0,32.0,82,30.31,10.0,South,5.8,-,N/A,,Clear,170,2013-02-26 08:53:00
1:53 AM,36.0,33.1,89,30.32,10.0,South,6.9,-,N/A,,Clear,180,2013-02-26 09:53:00
2:53 AM,37.0,33.1,86,30.32,10.0,SSE,9.2,-,N/A,,Clear,160,2013-02-26 10:53:00
3:53 AM,37.0,33.1,86,30.32,10.0,SSE,9.2,-,N/A,,Clear,150,2013-02-26 11:53:00
4:53 AM,36.0,32.0,86,30.33,10.0,SSE,8.1,-,N/A,,Partly Cloudy,150,2013-02-26 12:53:00
5:22 AM,37.4,32.0,81,30.32,10.0,SSE,9.2,-,N/A,,Mostly Cloudy,160,2013-02-26 13:22:00
5:53 AM,37.0,32.0,82,30.34,10.0,SE,4.6,-,N/A,,Mostly Cloudy,140,2013-02-26 13:53:00
6:14 AM,37.4,32.0,81,30.32,10.0,SSE,9.2,-,N/A,,Scattered Clouds,150,2013-02-26 14:14:00
6:49 AM,37.4,33.8,87,30.32,10.0,SSE,8.1,-,N/A,,Mostly Cloudy,150,2013-02-26 14:49:00
6:53 AM,37.0,33.1,86,30.34,10.0,SSE,8.1,-,N/A,,Mostly Cloudy,150,2013-02-26 14:53:00
7:53 AM,37.9,33.1,83,30.34,10.0,SSE,9.2,-,N/A,,Overcast,150,2013-02-26 15:53:00
8:53 AM,39.9,34.0,79,30.35,10.0,SSE,10.4,-,N/A,,Overcast,160,2013-02-26 16:53:00
9:53 AM,42.1,33.1,70,30.33,10.0,SSE,16.1,19.6,N/A,,Overcast,160,2013-02-26 17:53:00
10:53 AM,43.0,33.1,68,30.32,10.0,South,13.8,20.7,N/A,,Mostly Cloudy,170,2013-02-26 18:53:00
11:53 AM,44.1,30.9,60,30.30,10.0,SSE,9.2,21.9,N/A,,Scattered Clouds,160,2013-02-26 19:53:00
12:53 PM,45.0,28.9,53,30.28,10.0,SSE,13.8,23.0,N/A,,Clear,160,2013-02-26 20:53:00
1:53 PM,45.0,28.0,52,30.25,10.0,South,13.8,-,N/A,,Mostly Cloudy,170,2013-02-26 21:53:00
2:53 PM,45.0,28.0,52,30.25,10.0,South,10.4,-,N/A,,Mostly Cloudy,170,2013-02-26 22:53:00
3:53 PM,44.6,28.4,53,30.23,10.0,South,12.7,-,N/A,,Overcast,170,2013-02-26 23:53:00
4:53 PM,45.0,28.9,53,30.22,10.0,SSE,11.5,-,N/A,,Overcast,160,2013-02-27 00:53:00
5:53 PM,44.1,28.9,55,30.22,10.0,South,10.4,-,N/A,,Overcast,170,2013-02-27 01:53:00
6:53 PM,43.0,33.1,68,30.21,10.0,South,11.5,-,0.00,Rain,Light Rain,190,2013-02-27 02:53:00
7:53 PM,43.0,32.0,65,30.21,10.0,South,17.3,21.9,0.00,,Overcast,190,2013-02-27 03:53:00
8:53 PM,43.0,30.9,62,30.21,10.0,South,10.4,-,N/A,,Overcast,180,2013-02-27 04:53:00
9:53 PM,42.1,33.1,70,30.21,10.0,South,15.0,-,N/A,,Overcast,180,2013-02-27 05:53:00
10:40 PM,41.0,35.6,81,30.19,6.0,South,12.7,-,0.00,Rain,Light Rain,170,2013-02-27 06:40:00
10:49 PM,41.0,35.6,81,30.19,8.0,SSE,13.8,19.6,0.01,Rain,Light Rain,160,2013-02-27 06:49:00
10:53 PM,39.9,35.1,83,30.20,9.0,South,11.5,-,0.01,Rain,Light Rain,170,2013-02-27 06:53:00
11:19 PM,41.0,35.6,81,30.19,7.0,South,10.4,-,0.01,Rain,Light Rain,170,2013-02-27 07:19:00
11:28 PM,39.2,35.6,87,30.19,7.0,SSE,11.5,19.6,0.01,Rain,Light Rain,160,2013-02-27 07:28:00
11:40 PM,39.2,35.6,87,30.19,10.0,SSE,9.2,-,0.01,,Overcast,160,2013-02-27 07:40:00
11:53 PM,41.0,35.1,79,30.21,9.0,South,11.5,-,0.01,,Overcast,170,2013-02-27 07:53:00